RYR6AV EGPH-EKCH

Flight info

Callsign RYR6AV
Flight time N/A
Altitude 37000
Route TLA Y96 HAVEN DCT OTBUN DCT ERLOT DCT GIVEM DCT SURAT DCT PETIL DCT TESPI
Aircraft B38M/M-SDE1FGHILORVWXY/HB1

Departure

Time 2026-05-05 07:48
Airport Edinburgh Airport (EGPH)

Arrival

Time N/A
Airport Copenhagen Kastrup Airport (EKCH)
Time Latitude Longitude Altitude Speed Heading
2026-05-05 07:20 55.94895 -3.35995 119 ft 0 kts 254°
2026-05-05 07:39 55.94897 -3.35982 114 ft 4 kts 254°
2026-05-05 07:40 55.94904 -3.35936 114 ft 4 kts 254°
2026-05-05 07:40 55.94910 -3.35899 116 ft 3 kts 255°
2026-05-05 07:40 55.94916 -3.35853 115 ft 4 kts 261°
2026-05-05 07:40 55.94917 -3.35821 116 ft 4 kts 278°
2026-05-05 07:41 55.94913 -3.35795 116 ft 0 kts 298°
2026-05-05 07:44 55.94915 -3.35801 116 ft 3 kts 299°
2026-05-05 07:44 55.94951 -3.35858 118 ft 11 kts 349°
2026-05-05 07:44 55.95023 -3.35822 117 ft 4 kts 28°
2026-05-05 07:44 55.95047 -3.35798 118 ft 7 kts 28°
2026-05-05 07:45 55.95114 -3.35850 116 ft 17 kts 301°
2026-05-05 07:45 55.95191 -3.35970 118 ft 12 kts 333°
2026-05-05 07:45 55.95272 -3.35876 117 ft 19 kts 59°
2026-05-05 07:45 55.95346 -3.35655 116 ft 22 kts 59°
2026-05-05 07:46 55.95415 -3.35454 117 ft 18 kts 58°
2026-05-05 07:46 55.95470 -3.35411 118 ft 9 kts 341°
2026-05-05 07:46 55.95486 -3.35426 118 ft 0 kts 329°
2026-05-05 07:46 55.95488 -3.35428 118 ft 2 kts 329°
2026-05-05 07:47 55.95518 -3.35461 117 ft 9 kts 328°
2026-05-05 07:47 55.95569 -3.35538 114 ft 9 kts 277°
2026-05-05 07:47 55.95555 -3.35610 113 ft 0 kts 239°
2026-05-05 07:47 55.95474 -3.35853 114 ft 63 kts 239°
2026-05-05 07:48 55.95101 -3.36951 116 ft 141 kts 239°
2026-05-05 07:48 55.94497 -3.38710 371 ft 182 kts 240°
2026-05-05 07:48 55.93842 -3.40659 1481 ft 182 kts 242°
2026-05-05 07:48 55.93140 -3.42701 2256 ft 205 kts 241°
2026-05-05 07:49 55.92339 -3.45012 2970 ft 231 kts 240°
2026-05-05 07:49 55.91453 -3.47556 3892 ft 244 kts 240°
2026-05-05 07:49 55.90553 -3.50166 5042 ft 254 kts 240°
2026-05-05 07:49 55.89634 -3.52975 5765 ft 270 kts 241°
2026-05-05 07:50 55.88687 -3.55870 5960 ft 270 kts 241°
2026-05-05 07:50 55.87511 -3.58461 5972 ft 270 kts 219°
2026-05-05 07:50 55.85825 -3.59903 5987 ft 273 kts 192°
2026-05-05 07:50 55.83946 -3.59893 6186 ft 278 kts 165°
2026-05-05 07:51 55.82245 -3.58389 7202 ft 275 kts 141°
2026-05-05 07:51 55.80955 -3.55823 8058 ft 286 kts 120°
2026-05-05 07:51 55.80027 -3.52663 9030 ft 292 kts 123°
2026-05-05 07:51 55.78512 -3.50277 9951 ft 295 kts 158°
2026-05-05 07:52 55.76521 -3.49300 10649 ft 305 kts 169°
2026-05-05 07:52 55.74398 -3.48341 11117 ft 324 kts 167°
2026-05-05 07:52 55.72179 -3.47262 11679 ft 337 kts 167°
2026-05-05 07:52 55.69898 -3.46088 12434 ft 342 kts 166°
2026-05-05 07:53 55.67611 -3.44854 13217 ft 346 kts 166°
2026-05-05 07:53 55.65287 -3.43596 13929 ft 351 kts 166°
2026-05-05 07:53 55.62940 -3.42323 14567 ft 354 kts 166°
2026-05-05 07:53 55.60578 -3.41043 15196 ft 356 kts 166°
2026-05-05 07:54 55.58195 -3.39753 15812 ft 359 kts 166°
2026-05-05 07:54 55.55791 -3.38453 16415 ft 362 kts 166°
2026-05-05 07:54 55.53431 -3.37021 16982 ft 368 kts 157°
2026-05-05 07:54 55.51323 -3.34409 17581 ft 375 kts 136°
2026-05-05 07:55 55.49795 -3.30652 18123 ft 381 kts 117°
2026-05-05 07:55 55.48997 -3.26181 18584 ft 386 kts 101°
2026-05-05 07:55 55.48485 -3.21521 19010 ft 389 kts 102°
2026-05-05 07:55 55.47968 -3.16824 19450 ft 391 kts 101°
2026-05-05 07:56 55.47457 -3.12102 19865 ft 393 kts 101°
2026-05-05 07:56 55.46944 -3.07346 20269 ft 396 kts 101°
2026-05-05 07:56 55.46428 -3.02569 20682 ft 398 kts 102°
2026-05-05 07:56 55.45527 -2.97973 21080 ft 397 kts 120°
2026-05-05 07:57 55.44187 -2.93701 21427 ft 400 kts 120°
2026-05-05 07:57 55.42858 -2.89441 21801 ft 403 kts 121°
2026-05-05 07:57 55.41477 -2.85069 22190 ft 405 kts 121°
2026-05-05 07:57 55.40114 -2.80786 22534 ft 407 kts 121°
2026-05-05 07:58 55.38722 -2.76428 22885 ft 410 kts 121°
2026-05-05 07:58 55.37318 -2.72044 23231 ft 412 kts 121°
2026-05-05 07:58 55.35906 -2.67643 23554 ft 414 kts 121°
2026-05-05 07:58 55.34486 -2.63228 23830 ft 416 kts 121°
2026-05-05 07:59 55.33057 -2.58789 24123 ft 417 kts 122°
2026-05-05 07:59 55.31625 -2.54352 24393 ft 419 kts 122°
2026-05-05 07:59 55.30181 -2.49885 24650 ft 421 kts 122°
2026-05-05 07:59 55.28843 -2.45304 24897 ft 424 kts 111°
2026-05-05 08:00 55.28235 -2.40235 25178 ft 426 kts 93°
2026-05-05 08:00 55.28216 -2.35036 25398 ft 429 kts 90°
2026-05-05 08:00 55.28232 -2.29792 25612 ft 431 kts 90°
2026-05-05 08:00 55.28265 -2.24555 25871 ft 432 kts 89°
2026-05-05 08:01 55.28307 -2.19246 26105 ft 433 kts 89°
2026-05-05 08:01 55.28353 -2.13966 26333 ft 435 kts 89°
2026-05-05 08:01 55.28397 -2.08723 26554 ft 436 kts 89°
2026-05-05 08:01 55.28440 -2.03404 26783 ft 437 kts 89°
2026-05-05 08:02 55.28481 -1.98051 26993 ft 439 kts 89°
2026-05-05 08:02 55.28520 -1.92698 27183 ft 440 kts 89°
2026-05-05 08:02 55.28557 -1.87317 27380 ft 442 kts 89°
2026-05-05 08:02 55.28591 -1.81923 27568 ft 443 kts 89°
2026-05-05 08:03 55.28623 -1.76503 27759 ft 444 kts 89°
2026-05-05 08:03 55.28653 -1.71072 27957 ft 445 kts 89°
2026-05-05 08:03 55.28681 -1.65632 28134 ft 446 kts 90°
2026-05-05 08:03 55.28706 -1.60176 28303 ft 447 kts 90°
2026-05-05 08:04 55.28729 -1.54707 28462 ft 449 kts 90°
2026-05-05 08:04 55.28749 -1.49228 28638 ft 450 kts 90°
2026-05-05 08:04 55.28767 -1.43724 28786 ft 451 kts 90°
2026-05-05 08:04 55.28782 -1.38272 28968 ft 452 kts 90°
2026-05-05 08:05 55.28796 -1.32748 29127 ft 454 kts 90°
2026-05-05 08:05 55.28806 -1.27200 29294 ft 455 kts 90°
2026-05-05 08:05 55.28814 -1.21648 29471 ft 456 kts 90°
2026-05-05 08:05 55.28820 -1.16079 29640 ft 457 kts 90°
2026-05-05 08:06 55.28823 -1.10489 29833 ft 458 kts 90°
2026-05-05 08:06 55.28824 -1.04890 30002 ft 460 kts 90°
2026-05-05 08:06 55.28822 -0.99287 30164 ft 461 kts 90°
2026-05-05 08:06 55.28817 -0.93653 30321 ft 462 kts 90°
2026-05-05 08:07 55.28810 -0.88009 30487 ft 463 kts 90°
2026-05-05 08:07 55.28800 -0.82350 30656 ft 464 kts 90°
2026-05-05 08:07 55.28788 -0.76677 30825 ft 465 kts 90°
2026-05-05 08:07 55.28774 -0.71001 31004 ft 466 kts 90°
2026-05-05 08:08 55.28759 -0.65306 31180 ft 467 kts 90°
2026-05-05 08:08 55.28877 -0.59605 31351 ft 468 kts 80°
2026-05-05 08:08 55.29747 -0.54212 31563 ft 466 kts 66°
2026-05-05 08:08 55.30939 -0.48904 31691 ft 469 kts 68°
2026-05-05 08:09 55.32088 -0.43543 31894 ft 470 kts 68°
2026-05-05 08:09 55.33238 -0.38160 32092 ft 471 kts 68°
2026-05-05 08:09 55.34391 -0.32756 32299 ft 473 kts 68°
2026-05-05 08:09 55.35543 -0.27341 32512 ft 474 kts 68°
2026-05-05 08:10 55.36697 -0.21903 32720 ft 475 kts 68°
2026-05-05 08:10 55.37854 -0.16438 32937 ft 477 kts 68°
2026-05-05 08:10 55.39009 -0.10966 33140 ft 479 kts 68°
2026-05-05 08:10 55.40165 -0.05473 33415 ft 479 kts 69°
2026-05-05 08:11 55.41319 0.00023 33730 ft 478 kts 69°
2026-05-05 08:11 55.42468 0.05511 34056 ft 478 kts 69°
2026-05-05 08:11 55.43614 0.10999 34337 ft 477 kts 69°
2026-05-05 08:11 55.44758 0.16492 34576 ft 477 kts 69°
2026-05-05 08:12 55.45900 0.21984 34800 ft 477 kts 69°
2026-05-05 08:12 55.46849 0.27592 35011 ft 478 kts 76°
2026-05-05 08:12 55.47658 0.33267 35217 ft 477 kts 75°
2026-05-05 08:12 55.48502 0.38933 35405 ft 478 kts 74°
2026-05-05 08:13 55.49355 0.44583 35598 ft 478 kts 74°
2026-05-05 08:13 55.50214 0.50250 35781 ft 478 kts 74°
2026-05-05 08:13 55.51070 0.55911 35965 ft 478 kts 74°
2026-05-05 08:13 55.51915 0.61515 36148 ft 477 kts 74°
2026-05-05 08:14 55.52768 0.67183 36313 ft 478 kts 74°
2026-05-05 08:14 55.53615 0.72843 36486 ft 477 kts 74°
2026-05-05 08:14 55.54462 0.78517 36655 ft 477 kts 74°
2026-05-05 08:14 55.55304 0.84180 36813 ft 477 kts 74°
2026-05-05 08:15 55.56145 0.89851 36951 ft 477 kts 75°
2026-05-05 08:15 55.56984 0.95533 36993 ft 478 kts 75°
2026-05-05 08:15 55.58649 1.06866 36982 ft 476 kts 75°
2026-05-05 08:16 55.60305 1.18217 36973 ft 477 kts 75°
2026-05-05 08:16 55.61952 1.29590 36974 ft 477 kts 75°
2026-05-05 08:17 55.63587 1.40966 36979 ft 477 kts 75°
2026-05-05 08:17 55.65202 1.52280 36977 ft 477 kts 75°
2026-05-05 08:18 55.66820 1.63700 36978 ft 478 kts 75°
2026-05-05 08:18 55.68425 1.75121 36977 ft 478 kts 75°
2026-05-05 08:19 55.70023 1.86563 36974 ft 478 kts 75°
2026-05-05 08:19 55.71612 1.98033 36979 ft 479 kts 76°
2026-05-05 08:20 55.73189 2.09502 36974 ft 479 kts 76°
2026-05-05 08:20 55.74759 2.21004 36980 ft 479 kts 76°
2026-05-05 08:21 55.76317 2.32508 36982 ft 480 kts 76°
2026-05-05 08:21 55.77866 2.44043 36983 ft 480 kts 76°
2026-05-05 08:22 55.79396 2.55514 36981 ft 480 kts 76°
2026-05-05 08:22 55.80925 2.67075 36986 ft 481 kts 76°
2026-05-05 08:23 55.82445 2.78654 36988 ft 481 kts 76°
2026-05-05 08:23 55.83957 2.90261 36989 ft 482 kts 76°
2026-05-05 08:24 55.85457 3.01880 36989 ft 482 kts 76°
2026-05-05 08:24 55.86949 3.13524 36989 ft 482 kts 76°
2026-05-05 08:25 55.88433 3.25173 36990 ft 483 kts 76°
2026-05-05 08:25 55.89910 3.36853 36992 ft 483 kts 77°
2026-05-05 08:26 55.91365 3.48532 36990 ft 483 kts 79°
2026-05-05 08:26 55.91757 3.60487 36980 ft 484 kts 88°
2026-05-05 08:27 55.92010 3.72469 36996 ft 484 kts 88°
2026-05-05 08:27 55.92243 3.84470 36995 ft 484 kts 88°
2026-05-05 08:28 55.92462 3.96386 36995 ft 484 kts 88°
2026-05-05 08:28 55.92673 4.08400 36998 ft 484 kts 88°
2026-05-05 08:29 55.92870 4.20407 37000 ft 484 kts 89°
2026-05-05 08:30 55.93146 4.38438 36997 ft 485 kts 89°
2026-05-05 08:30 55.93315 4.50463 37002 ft 485 kts 89°
2026-05-05 08:31 55.93471 4.62418 37002 ft 485 kts 89°
2026-05-05 08:31 55.93617 4.74439 37001 ft 485 kts 89°
2026-05-05 08:32 55.93751 4.86464 37001 ft 485 kts 89°
2026-05-05 08:32 55.93880 4.98491 37004 ft 485 kts 89°
2026-05-05 08:33 55.94059 5.10519 37006 ft 485 kts 89°
2026-05-05 08:33 55.94224 5.22556 37005 ft 485 kts 89°
2026-05-05 08:34 55.94377 5.34590 37004 ft 485 kts 89°
2026-05-05 08:34 55.94496 5.44604 37005 ft 485 kts 89°
2026-05-05 08:35 55.94607 5.54682 37003 ft 485 kts 89°